User: anonymous   Login
Location: Kings Park
(40.8862°N, 73.2573°W)
Time: 02:17:58
(UTC+00:00)
Language:

Cosmos 1745 Rocket - Orbit

View from above orbital plane
View from above orbital plane
View from above satellite
View from above satellite

Ground track
Ground track

The orbit data is extracted from the following two-line orbital elements,

1 16728U 86037B   21018.40772067  .00000071  00000-0  55919-4 0  9994
2 16728  82.9545  85.2002 0032001 133.8220 237.8998 13.76737930740734
Epoch (UTC): 18 January 2021 09:47:07
Eccentricity: 0.0032001
inclination: 82.9545°
perigee height: 952 km
apogee height: 999 km
right ascension of ascending node: 85.2002°
argument of perigee: 133.8220°
revolutions per day: 13.76737930
mean anomaly at epoch: 237.8998°
orbit number at epoch: 74073

The dashed part of the orbit path shows where the satellite is in the earth's shadow,  

DLR